Location: Newark
(13.8625°N, 100.5144°E)
Time: 16:54:17
(UTC+00:00)

X-37B - Visible Passes

Search period start: 13 June 2021 00:00
Search period end: 23 June 2021 00:00
Orbit: 386 x 389 km, 45.0° (Epoch: 10 June)

Date Brightness Start Highest point End Pass type
(mag) Time Alt. Az. Time Alt. Az. Time Alt. Az.
20 Jun 2.3 12:24:14 10° SSE 12:26:08 15° SE 12:27:04 13° ESE visible
20 Jun 3.9 22:13:09 10° N 22:14:51 14° NE 22:16:35 10° ENE visible
21 Jun 1.0 13:01:05 10° SW 13:04:13 62° NW 13:07:21 10° NE visible
22 Jun 2.5 21:51:54 10° NNW 21:54:48 33° NE 21:57:42 10° ESE visible
